TimeCDT,TemperatureF,Dew PointF,Humidity,Sea Level PressureIn,VisibilityMPH,Wind Direction,Wind SpeedMPH,Gust SpeedMPH,PrecipitationIn,Events,Conditions,WindDirDegrees,DateUTC
12:52 AM,51.1,43.0,74,30.02,10.0,NE,3.5,-,N/A,,Mostly Cloudy,40,2013-05-06 05:52:00
1:52 AM,52.0,45.0,77,30.00,10.0,NNE,4.6,-,0.00,,Overcast,30,2013-05-06 06:52:00
2:52 AM,53.1,44.1,71,30.00,10.0,North,3.5,-,N/A,,Overcast,10,2013-05-06 07:52:00
3:52 AM,53.1,43.0,69,29.98,10.0,North,6.9,-,N/A,,Overcast,360,2013-05-06 08:52:00
4:52 AM,53.1,44.1,71,29.99,10.0,NNE,5.8,-,N/A,,Overcast,20,2013-05-06 09:52:00
5:52 AM,52.0,43.0,71,30.01,10.0,North,4.6,-,N/A,,Overcast,360,2013-05-06 10:52:00
6:52 AM,53.1,44.1,71,30.02,10.0,North,5.8,-,N/A,,Overcast,360,2013-05-06 11:52:00
7:52 AM,55.9,45.0,67,30.03,10.0,North,5.8,-,N/A,,Overcast,10,2013-05-06 12:52:00
8:52 AM,60.1,43.0,53,30.04,10.0,NNE,9.2,-,N/A,,Overcast,20,2013-05-06 13:52:00
9:52 AM,64.0,43.0,46,30.03,10.0,NNE,8.1,-,N/A,,Overcast,20,2013-05-06 14:52:00
10:52 AM,66.0,42.1,42,30.04,10.0,NE,10.4,-,N/A,,Mostly Cloudy,50,2013-05-06 15:52:00
11:52 AM,69.1,41.0,36,30.02,10.0,ENE,15.0,-,N/A,,Clear,60,2013-05-06 16:52:00
12:52 PM,70.0,43.0,38,30.01,10.0,NE,11.5,19.6,N/A,,Clear,40,2013-05-06 17:52:00
1:52 PM,72.0,39.9,31,29.99,10.0,NE,18.4,21.9,N/A,,Clear,40,2013-05-06 18:52:00
2:52 PM,73.0,37.9,28,29.99,10.0,NNE,11.5,-,N/A,,Clear,30,2013-05-06 19:52:00
3:52 PM,72.0,36.0,27,29.98,10.0,NE,10.4,-,N/A,,Clear,40,2013-05-06 20:52:00
5:52 PM,69.1,35.1,29,29.98,10.0,NE,6.9,-,N/A,,Clear,50,2013-05-06 22:52:00
6:52 PM,64.9,37.9,37,29.98,10.0,NE,5.8,-,N/A,,Clear,40,2013-05-06 23:52:00
7:52 PM,63.0,36.0,37,30.00,10.0,NE,6.9,-,N/A,,Clear,40,2013-05-07 00:52:00
8:52 PM,59.0,35.1,41,30.01,10.0,NE,8.1,-,N/A,,Clear,40,2013-05-07 01:52:00
9:52 PM,55.9,37.0,49,30.03,10.0,NE,5.8,-,N/A,,Clear,40,2013-05-07 02:52:00
10:52 PM,54.0,36.0,51,30.02,10.0,Calm,Calm,-,N/A,,Clear,0,2013-05-07 03:52:00
11:52 PM,53.1,36.0,52,30.02,10.0,Calm,Calm,-,N/A,,Clear,0,2013-05-07 04:52:00